Regional Weather Roundup
Issued by NWS Green Bay, WI

Home | Current Version | Previous Version | Graphics & Text | Print | Product List | Glossary Off
Versions: 1 2 3 4 5 6 7 8 9 10 11 12 13 14 15 16 17 18 19 20 21 22 23 24 25 26 27 28 29 30 31 32 33 34 35 36 37 38 39 40 41 42 43 44 45 46 47 48 49 50

000
ASUS43 KGRB 302111
RWRGRB

NORTH-CENTRAL AND NORTHEAST WISCONSIN REGIONAL WEATHER ROUNDUP
NATIONAL WEATHER SERVICE GREEN BAY WI
400 PM CDT SAT APR 30 2016

WIZ005-009-010>012-018-019-302200-
NORTH CENTRAL WISCONSIN

CITY           SKY/WX    TMP DP  RH WIND       PRES   REMARKS
IRONWOOD         N/A     50  34  53 NE9       30.16S
MANITOWISH WTR CLOUDY    52  34  50 N15G22    30.12F
ARBOR VITAE    CLOUDY    56  33  42 NE7G16    30.10F
EAGLE RIVER    PTSUNNY   55  29  37 E10G16    30.11F
LAND O LAKES   CLOUDY    54  32  43 NE10      30.14F
RHINELANDER    CLOUDY    55  31  39 E12G21    30.09F
PHILLIPS       CLOUDY    55  33  42 NE13G20   30.08F
ANTIGO         CLOUDY    54  34  47 E13       30.06F
TOMAHAWK       CLOUDY    56  31  39 NE7G16    30.07F
MERRILL        CLOUDY    58  33  38 E14G25    30.06F
$$

WIZ013-073-302200-
NORTHEAST WISCONSIN

CITY           SKY/WX    TMP DP  RH WIND       PRES   REMARKS
IRON MOUNTAIN  PTSUNNY   56  30  37 NE14      30.13S
MARINETTE      CLOUDY    52  30  43 NE13      30.10F
OCONTO         CLOUDY    51  31  46 E7        30.09F
$$

WIZ017-030-035>037-045-302200-
CENTRAL WISCONSIN

CITY           SKY/WX    TMP DP  RH WIND       PRES   REMARKS
MEDFORD        PTSUNNY   57  33  40 E14G22    30.03F
WAUSAU         CLOUDY    57  31  37 NE15G22   30.03F
MOSINEE        SUNNY     54  30  40 NE16G25   30.05F
MARSHFIELD     CLOUDY    54  31  41 E15       30.03F
WISC RAPIDS    CLOUDY    53  30  41 E18G28    30.05F
STEVENS POINT  CLOUDY    51  29  44 E15G23    30.05F
WAUPACA        CLOUDY    54  33  45 NE14G21   30.06S
SHAWANO        CLOUDY    55  30  38 E15G22    30.08F
CLINTONVILLE   CLOUDY    54  27  35 E16G23    30.06F
WAUTOMA        CLOUDY    52  37  56 NE21      30.03F
$$

WIZ038-039-048-051-302200-
FOX VALLEY

CITY           SKY/WX    TMP DP  RH WIND       PRES   REMARKS
NWS GREEN BAY  CLOUDY    51  37  58 NE14      30.08F
APPLETON       CLOUDY    52  32  46 E13       30.04F
OSHKOSH        CLOUDY    51  35  54 E12       30.03F
FOND DU LAC    LGT RAIN  50  36  58 NE9       30.02F
$$

WIZ022-050-052-302200-
EAST CENTRAL WISCONSIN

CITY           SKY/WX    TMP DP  RH WIND       PRES   REMARKS
EPHRAIM        FAIR      50  31  47 NE8       30.10F
STURGEON BAY   CLOUDY    48  34  57 NE10      30.11F
MANITOWOC      CLOUDY    47  37  68 MISG      30.08F
SHEBOYGAN      CLOUDY    47  37  68 NE13      30.05F
$$

LMZ563-521-522-541>543-302200-
LAKESHORE

STATION/POSITION TIME  TEMP    WIND        PRES    VSBY  WAVE
                       AIR SEA DIR/SP/G                  HT/PER
                 (UTC) (F)     (DEG/KT/KT) (MB)    (MI)  (FT/S)
SHEBOYGAN LKSHOR 2100   42      20/ 20/ 22 1018.2F
KEWAUNEE LKSHORE 2000   44      20/ 11/ 17 1018.7F
NORTHPORT PIER   2000   44     110/  3/  7 1020.7S
N MID LAKE BUOY  2050   43 39   30/ 10/ 10 1019.9F         1
CHAMBERS ISLAND  2000   48      60/  8/ 10 1020.7F
MENOMINEE LKSHOR 2000   44     360/  6/  7 1019.3F
$$



USA.gov is the U.S. government's official web portal to all federal, state and local government web resources and services.